[[{"header":{"parameterUnit":"m.s-1","parameterCategory":1,"la1":30.2991,"la2":30.254,"lo1":-89.0895,"lo2":-89.0444,"dy":0.0017,"dx":0.0017,"nx":28,"ny":28,"refTime":"2024-05-09T09:00:00:Z","depth":0,"parameterNumber":2,"parameterNumberName":"U-component_of_WINDS"},"data":[0,0,0,0,0,0,0,0,0,0,0,0,0,0,0,0,0,0,0,0,0,0,0,0,0,0,0,0,0,0,0,0,0,0,0,0,0,0,0,0,0,0,0,0,0,0,0,0,0,0,0,0,0,0,0,0,0,0,-0.6143,-0.6142,0,-0.6076,-0.6075,-0.6074,-0.607,-0.607,-0.6071,-0.6072,-0.6001,-0.5998,-0.5995,0,0,0,0,0,0,0,0,0,0,0,0,0,-0.6265,-0.6262,-0.6143,-0.6142,-0.6141,-0.6076,-0.6075,-0.6074,-0.607,-0.6071,-0.6071,-0.6072,-0.6001,-0.5998,-0.5995,0,0,0,0,0,0,0,0,0,0,0,0,0,-0.6206,-0.6262,-0.6143,-0.6131,-0.6129,-0.6076,-0.6075,-0.6074,-0.6069,-0.6071,-0.6072,-0.6073,-0.6002,-0.5999,-0.5995,-0.5948,0,0,-0.5983,-0.5981,0,0,0,0,0,0,0,0,-0.6209,-0.6202,-0.6134,-0.6132,-0.613,-0.6082,-0.6092,-0.6031,-0.6069,-0.6092,-0.6072,-0.6073,-0.6027,-0.6021,-0.6006,-0.5944,-0.5941,-0.5982,-0.598,-0.5978,-0.5977,0,0,0,0,0,0,0,-0.6213,-0.6204,-0.6116,-0.6133,-0.613,-0.6128,-0.6121,-0.608,-0.6054,-0.609,-0.609,-0.6082,-0.6026,-0.6009,-0.6004,-0.594,-0.5983,-0.5979,-0.5977,-0.5975,-0.5836,-0.5835,0,0,0,0,0,0,-0.622,-0.6208,-0.6118,-0.6114,-0.6173,-0.6125,-0.6117,-0.6096,-0.6054,-0.6049,-0.6081,-0.6082,-0.6016,-0.6009,-0.6001,-0.5943,-0.5978,-0.5975,-0.5973,-0.5837,-0.5836,-0.5834,0,0,0,0,0,0,-0.6223,-0.6212,-0.6121,-0.6161,-0.6149,-0.6122,-0.6098,-0.6094,-0.6078,-0.6047,-0.6042,-0.6069,-0.6016,-0.6007,-0.5961,-0.594,-0.5973,-0.5969,-0.5839,-0.5837,-0.5835,-0.5825,0,0,0,0,0,0,-0.6226,-0.6213,-0.6196,-0.6161,-0.6147,-0.6083,-0.6097,-0.6092,-0.6072,-0.6072,-0.6035,-0.603,-0.6016,-0.5967,-0.5957,-0.5935,-0.5966,-0.584,-0.5838,-0.5835,-0.5827,-0.5823,-0.582,0,0,0,0,0,-0.6231,-0.6195,-0.6195,-0.6184,-0.6125,-0.6082,-0.6074,-0.606,-0.607,-0.6052,-0.6032,-0.6031,-0.5944,-0.5962,-0.5951,-0.5928,-0.5842,-0.5839,-0.5836,-0.5829,-0.5824,-0.582,0,0,0,0,0,0,-0.6228,-0.6191,-0.619,-0.6142,-0.6115,-0.6081,-0.6057,-0.6055,-0.6024,-0.6025,-0.6009,-0.6,-0.5954,-0.5937,-0.5957,-0.5879,-0.5894,-0.5889,-0.5893,-0.5888,-0.5884,-0.5888,-0.5963,0,0,0,0,0,-0.6222,-0.6191,-0.616,-0.6121,-0.6107,-0.6085,-0.6065,-0.6057,-0.6028,-0.6016,-0.5993,-0.5964,-0.593,-0.5908,-0.5875,-0.5825,-0.5816,-0.5803,-0.58,-0.5797,-0.5792,-0.5762,-0.5756,-0.5824,-0.5824,-0.5824,0,0,-0.6209,-0.6185,-0.6166,-0.612,-0.6098,-0.6065,-0.6075,-0.604,-0.6015,-0.6011,-0.5966,-0.5948,-0.5914,-0.5866,-0.5843,-0.5849,-0.5771,-0.5793,-0.5791,-0.5787,-0.5759,-0.5752,-0.5746,-0.5822,-0.5822,-0.5823,0,0,-0.6169,-0.6148,-0.6113,-0.609,-0.6057,-0.6042,-0.6034,-0.6,-0.5988,-0.5943,-0.5939,-0.5908,-0.5851,-0.5827,-0.5807,-0.5757,-0.5754,-0.5747,-0.5726,-0.5698,-0.5692,-0.5687,-0.5668,-0.5662,-0.5742,-0.5742,-0.5742,0,-0.6157,-0.6108,-0.6095,-0.6059,-0.6038,-0.6034,-0.5997,-0.5976,-0.5934,-0.5919,-0.5927,-0.5854,-0.5831,-0.5776,-0.5764,-0.5749,-0.5737,-0.575,-0.5694,-0.5689,-0.5685,-0.5666,-0.5659,-0.5741,-0.5741,-0.5742,-0.5742,0,-0.6094,-0.606,-0.6035,-0.5995,-0.5971,-0.5935,-0.5916,-0.5893,-0.5887,-0.5871,-0.5824,-0.5797,-0.5758,-0.5745,-0.5738,-0.5688,-0.5693,-0.5698,-0.5712,-0.5678,-0.566,-0.5653,-0.574,-0.574,-0.5741,-0.5741,0,0,-0.6049,-0.6002,-0.5993,-0.5974,-0.5937,-0.591,-0.5874,-0.5836,-0.5817,-0.5788,-0.5756,-0.5707,-0.5711,-0.5689,-0.5679,-0.5655,-0.5615,-0.5662,-0.5661,-0.5653,-0.5557,-0.5553,-0.5545,-0.5614,-0.5612,-0.5611,-0.5559,0,-0.6004,-0.594,-0.5927,-0.5871,-0.5838,-0.5833,-0.5801,-0.5774,-0.5758,-0.5728,-0.571,-0.5675,-0.5684,-0.567,-0.5646,-0.5625,-0.5595,-0.5629,-0.5582,-0.5581,-0.559,-0.5536,-0.5531,-0.5484,-0.5553,-0.5551,-0.5551,0,-0.5942,-0.5912,-0.5853,-0.5819,-0.5805,-0.5777,-0.5741,-0.5712,-0.5681,-0.5671,-0.5646,-0.5639,-0.56,-0.5617,-0.5561,-0.5585,-0.5565,-0.5552,-0.555,-0.5544,-0.5563,-0.5527,-0.5469,-0.5461,-0.554,-0.5541,-0.5541,0,-0.5914,-0.5859,-0.5816,-0.58,-0.576,-0.574,-0.5722,-0.5693,-0.5671,-0.5639,-0.5624,-0.5588,-0.5568,-0.554,-0.5523,-0.5537,-0.5469,-0.5485,-0.5458,-0.5459,-0.5443,-0.5444,-0.5379,-0.5433,-0.5433,-0.5433,-0.5433,0,-0.5864,-0.5828,-0.5802,-0.5776,-0.5735,-0.572,-0.5679,-0.5661,-0.5635,-0.5604,-0.5597,-0.5568,-0.5548,-0.5516,-0.5503,-0.5458,-0.545,-0.5439,-0.5436,-0.5439,-0.544,-0.5425,-0.5427,-0.5431,-0.5431,-0.5432,-0.5432,0,-0.5826,-0.5807,-0.576,-0.5726,-0.5717,-0.5688,-0.5658,-0.5632,-0.5616,-0.5576,-0.5566,-0.5541,-0.5503,-0.5483,-0.5435,-0.5426,-0.5376,-0.5375,-0.5386,-0.5385,-0.5359,-0.5361,-0.5281,-0.5269,-0.5332,-0.5331,-0.533,0,-0.5794,-0.5766,-0.5729,-0.5708,-0.569,-0.5657,-0.5634,-0.5618,-0.5595,-0.5557,-0.5535,-0.5496,-0.5465,-0.5404,-0.538,-0.5343,-0.534,-0.5315,-0.5335,-0.5339,-0.5338,-0.534,-0.5336,-0.5311,-0.531,-0.531,-0.531,0,-0.574,-0.5733,-0.5701,-0.5666,-0.5639,-0.561,-0.5582,-0.5565,-0.5544,-0.5518,-0.5479,-0.5455,-0.5406,-0.5367,-0.5328,-0.5309,-0.5305,-0.5304,-0.5295,-0.5298,-0.5305,-0.5299,-0.5375,-0.5305,-0.5306,-0.5306,-0.5306,-0.5306,-0.5704,-0.5678,-0.5648,-0.5612,-0.5589,-0.5563,-0.5536,-0.5516,-0.5484,-0.5443,-0.5436,-0.5394,-0.5362,-0.531,-0.529,-0.5256,-0.5261,-0.525,-0.5246,-0.5243,-0.5241,-0.5311,-0.5249,-0.5249,-0.5249,-0.5249,-0.5249,0,-0.5648,-0.5629,-0.5596,-0.5557,-0.5528,-0.5528,-0.5497,-0.5473,-0.5436,-0.5408,-0.5377,-0.5331,-0.5294,-0.5267,-0.5228,-0.5206,-0.5204,-0.5197,-0.5197,-0.5193,-0.524,-0.525,-0.52,-0.52,-0.52,-0.52,-0.52,-0.52,-0.5616,-0.5573,-0.5561,-0.5505,-0.5485,-0.5445,-0.5427,-0.5402,-0.5379,-0.5328,-0.5297,-0.5281,-0.5252,-0.5211,-0.5176,-0.5169,-0.5155,-0.5148,-0.5141,-0.5184,-0.519,-0.5195,-0.5204,-0.5145,-0.5145,-0.5096,-0.5096,-0.5096]},{"header":{"parameterUnit":"m.s-1","parameterCategory":1,"la1":30.2991,"la2":30.254,"lo1":-89.0895,"lo2":-89.0444,"dy":0.0017,"dx":0.0017,"nx":28,"ny":28,"refTime":"2024-05-09T09:00:00:Z","depth":0,"parameterNumber":3,"parameterNumberName":"V-component_of_WINDS"},"data":[0,0,0,0,0,0,0,0,0,0,0,0,0,0,0,0,0,0,0,0,0,0,0,0,0,0,0,0,0,0,0,0,0,0,0,0,0,0,0,0,0,0,0,0,0,0,0,0,0,0,0,0,0,0,0,0,0,0,5.6775,5.6776,0,5.6942,5.6944,5.6946,5.6938,5.6935,5.6933,5.693,5.7099,5.7105,5.7112,0,0,0,0,0,0,0,0,0,0,0,0,0,5.6444,5.645,5.6774,5.6776,5.6779,5.6942,5.6944,5.6947,5.6938,5.6935,5.6932,5.6929,5.7097,5.7105,5.7113,0,0,0,0,0,0,0,0,0,0,0,0,0,5.6597,5.6452,5.6774,5.6794,5.6798,5.6942,5.6944,5.6947,5.6939,5.6935,5.6931,5.6928,5.7094,5.7104,5.7114,5.7248,0,0,5.7144,5.7149,0,0,0,0,0,0,0,0,5.6589,5.6609,5.6789,5.6793,5.6797,5.6915,5.689,5.7048,5.6939,5.6885,5.693,5.6926,5.704,5.7055,5.7094,5.7255,5.7263,5.7145,5.7151,5.7156,5.7159,0,0,0,0,0,0,0,5.6578,5.6602,5.6841,5.6792,5.6797,5.6794,5.6812,5.692,5.6981,5.6889,5.6889,5.6909,5.7042,5.7084,5.7098,5.7265,5.7145,5.7154,5.716,5.7164,5.7547,5.7551,0,0,0,0,0,0,5.6563,5.6593,5.6835,5.6846,5.6682,5.6803,5.6823,5.6881,5.6979,5.6991,5.6912,5.6908,5.7069,5.7086,5.7104,5.7269,5.7156,5.7165,5.7171,5.7543,5.7548,5.7552,0,0,0,0,0,0,5.6556,5.6585,5.6829,5.672,5.675,5.6812,5.6878,5.6886,5.6929,5.6997,5.7007,5.6944,5.7067,5.709,5.7213,5.7274,5.717,5.7179,5.7538,5.7545,5.755,5.7598,0,0,0,0,0,0,5.6547,5.6583,5.6634,5.6721,5.6756,5.6935,5.6882,5.6892,5.6946,5.6943,5.703,5.7041,5.7066,5.7198,5.7223,5.7286,5.7187,5.7533,5.7541,5.7548,5.7591,5.7605,5.7617,0,0,0,0,0,5.6535,5.664,5.6637,5.6666,5.6823,5.6939,5.6959,5.6987,5.6951,5.7004,5.7048,5.7038,5.7263,5.721,5.7238,5.7306,5.7529,5.7539,5.7548,5.7586,5.7603,5.7617,0,0,0,0,0,0,5.6557,5.6652,5.6649,5.6786,5.6855,5.6937,5.7004,5.7003,5.7083,5.7076,5.7106,5.7125,5.7249,5.729,5.7229,5.7442,5.7392,5.7407,5.7411,5.7428,5.744,5.7428,5.7195,0,0,0,0,0,5.6578,5.6666,5.6743,5.6856,5.6891,5.6942,5.6993,5.7009,5.7081,5.711,5.7163,5.7232,5.7319,5.7375,5.7459,5.7597,5.7617,5.7658,5.767,5.7681,5.7694,5.7772,5.7791,5.7583,5.7583,5.7583,0,0,5.6622,5.6684,5.6737,5.6862,5.6917,5.7007,5.6966,5.7062,5.7129,5.7124,5.7244,5.7286,5.7365,5.7497,5.7558,5.7535,5.7756,5.7692,5.77,5.7708,5.7783,5.7803,5.782,5.7589,5.7588,5.7587,0,0,5.6748,5.6804,5.6905,5.6962,5.7047,5.708,5.7105,5.7188,5.7216,5.7338,5.7336,5.7416,5.7564,5.7622,5.767,5.782,5.7814,5.7846,5.7914,5.799,5.8006,5.8021,5.8076,5.8095,5.7859,5.7859,5.7859,0,5.6791,5.6927,5.6956,5.7054,5.7109,5.7111,5.7213,5.7267,5.7374,5.7412,5.7384,5.7572,5.7626,5.7772,5.7809,5.7848,5.7877,5.7837,5.8001,5.8017,5.8031,5.8083,5.8104,5.7863,5.7862,5.7862,5.7862,0,5.6977,5.7072,5.7143,5.7249,5.7312,5.7412,5.7455,5.7516,5.7526,5.7562,5.7687,5.7751,5.7849,5.7885,5.7895,5.8033,5.8016,5.7995,5.7945,5.8053,5.8104,5.8124,5.7868,5.7866,5.7865,5.7864,0,0,5.7121,5.7243,5.7269,5.7318,5.7413,5.7486,5.7586,5.7683,5.7735,5.7809,5.7894,5.802,5.8002,5.8057,5.8074,5.8141,5.8257,5.8111,5.8114,5.8137,5.8415,5.8432,5.8454,5.8254,5.8258,5.8261,5.8409,0,5.7257,5.7437,5.7466,5.7623,5.7711,5.7715,5.7802,5.7869,5.7906,5.7986,5.8026,5.8117,5.8085,5.8118,5.8184,5.8229,5.8314,5.8219,5.8333,5.8337,5.8314,5.848,5.8498,5.8634,5.8429,5.8432,5.8434,0,5.744,5.7522,5.7688,5.7774,5.7812,5.789,5.7982,5.8058,5.8135,5.8157,5.822,5.823,5.8334,5.828,5.8423,5.8358,5.8407,5.8436,5.8442,5.8454,5.8393,5.8498,5.8678,5.8699,5.8465,5.8463,5.8461,0,5.753,5.7682,5.7801,5.7843,5.7944,5.8,5.8044,5.8118,5.8175,5.8255,5.8293,5.8383,5.8433,5.8503,5.8537,5.8494,5.8679,5.8627,5.8701,5.87,5.874,5.8737,5.8931,5.877,5.8769,5.8769,5.8768,0,5.768,5.7782,5.7843,5.7917,5.8031,5.8065,5.8177,5.822,5.8285,5.8367,5.8375,5.8451,5.8491,5.8573,5.86,5.8716,5.8738,5.8759,5.8765,5.8759,5.8757,5.8792,5.8784,5.8774,5.8773,5.8772,5.8771,0,5.78,5.7845,5.7976,5.8063,5.8087,5.8167,5.8241,5.8313,5.835,5.8454,5.848,5.8538,5.8636,5.8676,5.8795,5.8814,5.8947,5.8945,5.8922,5.8924,5.8996,5.8989,5.922,5.9253,5.9068,5.907,5.9072,0,5.7893,5.7972,5.8068,5.8125,5.8172,5.8262,5.8321,5.8357,5.8418,5.8513,5.8573,5.8671,5.8751,5.8907,5.8959,5.9051,5.9052,5.9127,5.9066,5.9058,5.9055,5.905,5.9059,5.9138,5.914,5.9142,5.9143,0,5.8055,5.8074,5.8159,5.8254,5.8325,5.84,5.8473,5.8519,5.8566,5.8634,5.8735,5.8798,5.8921,5.9018,5.9113,5.9159,5.9159,5.9162,5.9184,5.9179,5.9163,5.9174,5.8954,5.9156,5.9155,5.9154,5.9153,5.9153,5.8165,5.8236,5.8316,5.8411,5.8471,5.854,5.8612,5.866,5.8745,5.8849,5.8865,5.8973,5.9049,5.9177,5.9226,5.9311,5.9292,5.9324,5.9332,5.934,5.9345,5.9149,5.9328,5.9328,5.9328,5.9327,5.9327,0,5.8328,5.838,5.8467,5.8572,5.8647,5.8642,5.8724,5.8787,5.8883,5.8954,5.9034,5.9151,5.9246,5.9307,5.9403,5.9459,5.9462,5.9483,5.948,5.9491,5.9356,5.9328,5.948,5.948,5.948,5.948,5.948,5.948,5.8421,5.8542,5.8571,5.8721,5.8772,5.888,5.8927,5.8991,5.9049,5.9179,5.9259,5.9299,5.9366,5.9468,5.9555,5.957,5.9606,5.9629,5.9643,5.9516,5.95,5.9485,5.9459,5.9636,5.9636,5.9771,5.9772,5.9773]}]]